FW8325 Weather Reports


time (UTC)temp
C
wind
direction
speed
KPH
gust
KPH
rain 1hr
cm
rain 24hr
cm
rain mn
cm
humidity
%
barometer
mb
20260502130622 3 360 0.0 0.0 0.00 0.00 0.00 65 1021.1
20260502123629 1 265 0.0 0.0 0.00 0.00 0.00 69 1021.0
20260502122644 2 252 0.0 0.0 0.00 0.00 0.00 66 1021.0
20260502121657 1 252 0.0 0.0 0.00 0.00 0.00 70 1021.0
20260502120625 1 252 0.0 0.0 0.00 0.00 0.00 68 1021.0
20260502115618 1 252 0.0 0.0 0.00 0.00 0.00 67 1020.9
20260502114631 2 252 0.0 0.0 0.00 0.00 0.00 64 1020.9
20260502113627 2 273 0.0 0.0 0.00 0.00 0.00 62 1020.9
20260502112618 3 232 0.0 0.0 0.00 0.00 0.00 61 1021.0
20260502111628 2 232 0.0 0.0 0.00 0.00 0.00 69 1020.9
20260502110622 2 232 0.0 0.0 0.00 0.00 0.00 68 1021.0
20260502105618 2 232 0.0 0.0 0.00 0.00 0.00 66 1021.0
20260502104636 2 232 0.0 0.0 0.00 0.00 0.00 64 1021.0
20260502103627 2 232 0.0 0.0 0.00 0.00 0.00 63 1020.9
20260502102620 2 232 0.0 0.0 0.00 0.00 0.00 61 1020.9
20260502100624 3 269 0.0 0.0 0.00 0.00 0.00 60 1020.8
20260502090650 3 229 0.0 0.0 0.00 0.00 0.00 64 1020.7
20260502070623 7 262 0.0 0.0 0.00 0.00 0.00 50 1020.8
20260502065618 7 315 0.0 0.0 0.00 0.00 0.00 49 1020.7
20260502064631 6 62 0.0 0.0 0.00 0.00 0.00 56 1020.7
20260502063644 6 282 0.0 0.0 0.00 0.00 0.00 51 1020.5
20260502062633 7 293 0.0 0.0 0.00 0.00 0.00 50 1020.5
20260502061653 7 294 0.0 0.0 0.00 0.00 0.00 53 1020.5
20260502060651 6 292 0.0 0.0 0.00 0.00 0.00 52 1020.3
20260502055625 6 209 0.0 0.0 0.00 0.00 0.00 63 1020.2
20260502054619 6 204 0.0 0.0 0.00 0.00 0.00 58 1020.2
20260502053631 7 204 0.0 0.0 0.00 0.00 0.00 66 1020.1
20260502052622 7 148 0.0 0.0 0.00 0.00 0.00 70 1020.1
20260502051633 8 148 0.0 0.0 0.00 0.00 0.00 74 1020.1
20260502050630 8 148 0.0 0.0 0.00 0.00 0.00 69 1020.1
20260502045626 8 146 0.0 0.0 0.00 0.00 0.00 65 1020.2
20260502044621 9 206 0.0 0.0 0.00 0.00 0.00 46 1020.2
20260502043634 9 144 0.0 0.0 0.00 0.00 0.00 44 1020.1
20260502042629 10 144 0.0 0.0 0.00 0.00 0.00 43 1020.0
20260502041629 9 290 0.0 0.0 0.00 0.00 0.00 41 1019.9
20260502040621 9 265 0.0 3.2 0.00 0.00 0.00 41 1019.8
20260502035617 10 262 1.6 4.8 0.00 0.00 0.00 39 1019.6
20260502034650 10 248 0.0 0.0 0.00 0.00 0.00 38 1019.6
20260502033622 10 267 0.0 0.0 0.00 0.00 0.00 36 1019.4
20260502032618 10 260 0.0 6.4 0.00 0.00 0.00 34 1019.4
20260502031632 10 267 1.6 9.7 0.00 0.00 0.00 37 1019.2
20260502030623 9 257 0.0 0.0 0.00 0.00 0.00 38 1019.0
20260502025617 8 256 0.0 0.0 0.00 0.00 0.00 44 1018.8
20260502024650 9 279 0.0 0.0 0.00 0.00 0.00 40 1018.8
20260502023622 10 267 0.0 0.0 0.00 0.00 0.00 40 1018.8
20260502022617 10 268 0.0 0.0 0.00 0.00 0.00 41 1018.8
20260502021631 10 279 0.0 0.0 0.00 0.00 0.00 41 1018.7
20260502020622 11 266 0.0 0.0 0.00 0.00 0.00 39 1018.6
20260502015637 12 277 0.0 0.0 0.00 0.00 0.00 41 1018.6
20260502014649 11 152 0.0 0.0 0.00 0.00 0.00 56 1018.5
20260502013618 11 144 0.0 0.0 0.00 0.00 0.00 45 1018.5
20260502012617 12 128 0.0 0.0 0.00 0.00 0.00 46 1018.5
20260502011632 12 140 0.0 0.0 0.00 0.00 0.00 39 1018.5
20260502010624 11 139 0.0 0.0 0.00 0.00 0.00 53 1018.6
20260502005620 11 136 0.0 0.0 0.00 0.00 0.00 61 1018.6
20260502004633 11 130 0.0 0.0 0.00 0.00 0.00 63 1018.6
20260502003626 11 122 0.0 0.0 0.00 0.00 0.00 67 1018.6
20260502002623 11 123 0.0 0.0 0.00 0.00 0.00 64 1018.6
20260502001616 11 107 0.0 0.0 0.00 0.00 0.00 58 1018.6
20260502000647 11 103 0.0 0.0 0.00 0.00 0.00 60 1018.7
20260501235622 11 103 0.0 0.0 0.00 0.00 0.00 61 1018.7
20260501234634 11 111 0.0 0.0 0.00 0.00 0.00 35 1018.7
20260501233629 10 103 0.0 0.0 0.00 0.00 0.00 47 1018.8
20260501232647 11 103 0.0 0.0 0.00 0.00 0.00 69 1018.8
20260501231637 11 103 0.0 0.0 0.00 0.00 0.00 60 1019.0
20260501230628 10 103 0.0 0.0 0.00 0.00 0.00 59 1019.0
20260501225622 10 103 0.0 0.0 0.00 0.00 0.00 67 1019.1
20260501224633 10 88 0.0 0.0 0.00 0.00 0.00 66 1019.1
20260501223623 10 86 0.0 0.0 0.00 0.00 0.00 69 1019.3
20260501222618 10 86 0.0 0.0 0.00 0.00 0.00 66 1019.4
20260501221628 11 84 0.0 0.0 0.00 0.00 0.00 50 1019.5
20260501220622 12 38 0.0 0.0 0.00 0.00 0.00 47 1019.6
20260501215615 12 38 0.0 0.0 0.00 0.00 0.00 47 1019.7
20260501214647 11 40 0.0 0.0 0.00 0.00 0.00 59 1019.8
20260501213618 10 69 0.0 0.0 0.00 0.00 0.00 68 1020.0
20260501212634 10 69 0.0 0.0 0.00 0.00 0.00 67 1020.0
20260501211625 10 69 0.0 0.0 0.00 0.00 0.00 67 1020.2
20260501210619 10 66 0.0 0.0 0.00 0.00 0.00 68 1020.2
20260501205651 10 66 0.0 0.0 0.00 0.00 0.00 69 1020.3
20260501204622 10 59 0.0 0.0 0.00 0.00 0.00 65 1020.4
20260501203618 10 52 0.0 0.0 0.00 0.00 0.00 63 1020.4
20260501202631 9 52 0.0 0.0 0.00 0.00 0.00 68 1020.3
20260501201645 8 65 0.0 0.0 0.00 0.00 0.00 67 1020.4
20260501200616 9 67 0.0 0.0 0.00 0.00 0.00 65 1020.4
20260501195634 9 71 0.0 0.0 0.00 0.00 0.00 63 1020.4
20260501194626 11 46 0.0 0.0 0.00 0.00 0.00 52 1020.5
20260501193622 10 41 0.0 0.0 0.00 0.00 0.00 54 1020.6
20260501192616 9 41 0.0 0.0 0.00 0.00 0.00 59 1020.7
20260501191629 9 61 0.0 0.0 0.00 0.00 0.00 63 1020.7
20260501190642 8 50 0.0 0.0 0.00 0.00 0.00 64 1020.8
20260501185653 8 59 0.0 0.0 0.00 0.00 0.00 65 1020.8
20260501184644 8 57 0.0 0.0 0.00 0.00 0.00 61 1020.9
20260501183621 8 52 0.0 0.0 0.00 0.00 0.00 58 1021.1
20260501182634 8 53 0.0 0.0 0.00 0.00 0.00 61 1021.2
20260501181627 8 45 0.0 0.0 0.00 0.00 0.00 60 1021.2
20260501180631 7 47 0.0 0.0 0.00 0.00 0.00 62 1021.3
20260501175625 7 54 0.0 0.0 0.00 0.00 0.00 62 1021.3
20260501174616 8 46 0.0 0.0 0.00 0.00 0.00 61 1021.4
20260501173628 7 44 0.0 0.0 0.00 0.00 0.00 66 1021.4
20260501172626 6 41 0.0 0.0 0.00 0.00 0.00 71 1021.6
20260501171618 6 63 0.0 0.0 0.00 0.00 0.00 71 1021.6
20260501170630 6 74 0.0 0.0 0.00 0.00 0.00 71 1021.6
20260501165625 6 82 0.0 0.0 0.00 0.00 0.00 70 1021.6
20260501164639 6 82 0.0 0.0 0.00 0.00 0.00 67 1021.7
20260501163616 5 131 0.0 0.0 0.00 0.00 0.00 69 1021.7
20260501162629 5 131 0.0 0.0 0.00 0.00 0.00 69 1021.7
20260501161624 5 131 0.0 0.0 0.00 0.00 0.00 69 1021.7
20260501160618 5 131 0.0 0.0 0.00 0.00 0.00 68 1021.8
20260501155634 5 131 0.0 0.0 0.00 0.00 0.00 69 1021.8
20260501154628 5 131 0.0 0.0 0.00 0.00 0.00 69 1021.9
20260501153624 5 131 0.0 0.0 0.00 0.00 0.00 70 1021.9
20260501152636 4 132 0.0 0.0 0.00 0.00 0.00 69 1021.9
20260501151630 4 132 0.0 0.0 0.00 0.00 0.00 69 1021.8
20260501150643 4 136 0.0 0.0 0.00 0.00 0.00 70 1021.8
20260501145635 4 137 0.0 0.0 0.00 0.00 0.00 70 1021.9
20260501144647 4 145 0.0 0.0 0.00 0.00 0.00 71 1021.8
20260501143622 4 161 0.0 0.0 0.00 0.00 0.00 70 1021.7
20260501142632 4 162 0.0 0.0 0.00 0.00 0.00 71 1021.7